Weather History for New Bedford, MA

Change the Weather History Date:

Friday, December 7, 2012

  Actual Average Record
Temperature  
Mean Temperature 34 °F -  
Max Temperature 48 °F 47 °F 70 °F (1998)
Min Temperature 21 °F 31 °F 8 °F (2002)
Degree Days  
Heating Degree Days 30    
Moisture  
Dew Point 33 °F    
Average Humidity 85    
Maximum Humidity 97    
Minimum Humidity 63    
Precipitation  
Precipitation 0.02 in - - ()
Sea Level Pressure  
Sea Level Pressure 30.16 in    
Wind  
Wind Speed 1 mph (SSW)    
Max Wind Speed 5 mph    
Max Gust Speed -    
Visibility 9 miles    
Events Rain    
Averages and records for this station are not official NWS values.
T = Trace of Precipitation, MM = Missing Value Source: NWS Daily Summary

Daily Weather History Graph

Daily Weather History Graph

Search for Another Location

Airport:

Trip Planner

Search our weather history database for the weather conditions in past years. The results will help you decide how hot, cold, wet, or windy it might be!

Date:

Astronomy

Dec. 07, 2012 Rise Set
Actual Time 6:57 AM EST 4:13 PM EST
Civil Twilight 6:26 AM EST 4:44 PM EST
Nautical Twilight 5:51 AM EST 5:19 PM EST
Astronomical Twilight 5:17 AM EST 5:53 PM EST
Moon 12:08 AM EST (12/7) 12:12 PM EST (12/7)
Length of Visible Light 10h 18m
Length of Day
9h 15m
Last Quarter, 39% of the Moon is Illuminated
Dec 7
Last Quarter
Dec 13
New
Dec 20
First Quarter
Dec 28
Full
Jan 4
Last Quarter

Hourly Weather History & Observations

Time (EST) Temp. Windchill Dew Point Humidity Pressure Visibility Wind Dir Wind Speed Gust Speed Precip Events Conditions
12:53 AM 21.0 °F - 18.0 °F 88% 30.30 in 10.0 mi Calm Calm - N/A   Clear
1:53 AM 21.0 °F - 18.0 °F 88% 30.30 in 10.0 mi Calm Calm - N/A   Clear
2:53 AM 21.0 °F - 18.0 °F 88% 30.28 in 10.0 mi Calm Calm - N/A   Clear
3:53 AM 23.0 °F - 19.9 °F 88% 30.27 in 10.0 mi Calm Calm - N/A   Partly Cloudy
4:39 AM 24.8 °F - 21.2 °F 86% 30.25 in 10.0 mi Calm Calm - N/A   Mostly Cloudy
4:53 AM 24.1 °F - 21.0 °F 88% 30.25 in 10.0 mi Calm Calm - N/A   Overcast
5:53 AM 28.0 °F - 25.0 °F 88% 30.24 in 10.0 mi Calm Calm - N/A   Overcast
6:53 AM 28.9 °F - 27.0 °F 92% 30.24 in 10.0 mi Calm Calm - N/A   Overcast
7:53 AM 30.9 °F 27.5 °F 28.0 °F 89% 30.24 in 10.0 mi WNW 3.5 mph - N/A   Overcast
8:29 AM 33.8 °F - 28.4 °F 81% 30.23 in 10.0 mi Calm Calm - N/A   Overcast
8:53 AM 34.0 °F - 30.0 °F 85% 30.24 in 10.0 mi Calm Calm - N/A   Overcast
9:53 AM 39.0 °F - 32.0 °F 76% 30.23 in 10.0 mi Calm Calm - N/A   Overcast
10:53 AM 42.1 °F - 32.0 °F 67% 30.21 in 10.0 mi Calm Calm - N/A   Overcast
11:53 AM 46.0 °F 44.8 °F 35.1 °F 66% 30.17 in 10.0 mi Variable 3.5 mph - N/A   Mostly Cloudy
12:53 PM 48.0 °F - 36.0 °F 63% 30.14 in 10.0 mi SSE 4.6 mph - N/A   Clear
1:53 PM 46.9 °F - 36.0 °F 66% 30.13 in 10.0 mi SE 3.5 mph - N/A   Partly Cloudy
2:53 PM 46.9 °F - 37.0 °F 68% 30.13 in 10.0 mi SW 3.5 mph - N/A   Overcast
3:53 PM 46.9 °F - 37.9 °F 71% 30.11 in 10.0 mi Calm Calm - 0.00 in   Overcast
4:53 PM 44.1 °F - 39.9 °F 85% 30.11 in 10.0 mi Calm Calm - 0.00 in Rain Light Rain
5:53 PM 43.0 °F - 41.0 °F 93% 30.09 in 10.0 mi Calm Calm - 0.00 in   Overcast
6:53 PM 43.0 °F - 39.9 °F 89% 30.09 in 10.0 mi Calm Calm - N/A   Overcast
7:07 PM 42.8 °F - 41.0 °F 93% 30.09 in 10.0 mi Calm Calm - N/A   Overcast
7:53 PM 42.8 °F - 41.0 °F 93% 30.08 in 5.0 mi Calm Calm - N/A Rain Light Rain
8:00 PM 42.8 °F - 41.0 °F 93% 30.08 in 6.0 mi Calm Calm - 0.00 in Rain Light Rain
8:23 PM 42.8 °F - 41.0 °F 93% 30.09 in 10.0 mi Calm Calm - 0.00 in   Overcast
8:53 PM 43.0 °F - 41.0 °F 93% 30.09 in 6.0 mi Calm Calm - 0.00 in Rain Light Rain
9:15 PM 42.8 °F 41.1 °F 41.0 °F 93% 30.08 in 7.0 mi SSW 3.5 mph - 0.00 in Rain Light Rain
9:51 PM 42.8 °F - 41.0 °F 93% 30.07 in 7.0 mi Calm Calm - 0.01 in Rain Light Rain
9:53 PM 43.0 °F - 42.1 °F 97% 30.08 in 7.0 mi Calm Calm - 0.01 in Rain Light Rain
10:53 PM 44.1 °F - 42.1 °F 93% 30.07 in 3.0 mi Calm Calm - 0.01 in Rain Light Rain
11:53 PM 45.0 °F - 43.0 °F 93% 30.05 in 4.0 mi Calm Calm - 0.00 in Rain Light Rain